[[{"header":{"parameterUnit":"m.s-1","parameterCategory":1,"la1":30.2991,"la2":30.254,"lo1":-89.0895,"lo2":-89.0444,"dy":0.0017,"dx":0.0017,"nx":28,"ny":28,"refTime":"2025-01-08T09:00:00:Z","depth":0,"parameterNumber":2,"parameterNumberName":"U-component_of_WINDS"},"data":[0,0,0,0,0,0,0,0,0,0,0,0,0,0,0,0,0,0,0,0,0,0,0,0,0,0,0,0,0,0,0,0,0,0,0,0,0,0,0,0,0,0,0,0,0,0,0,0,0,0,0,0,0,0,0,0,0,0,-2.1029,-2.1029,0,-2.0998,-2.0998,-2.0998,-2.0879,-2.0876,-2.0873,-2.0871,-2.0846,-2.0848,-2.085,0,0,0,0,0,0,0,0,0,0,0,0,0,-2.0991,-2.0993,-2.1029,-2.1029,-2.1028,-2.0998,-2.0998,-2.0998,-2.0879,-2.0876,-2.0873,-2.087,-2.0845,-2.0848,-2.085,0,0,0,0,0,0,0,0,0,0,0,0,0,-2.0989,-2.0993,-2.1029,-2.0965,-2.0959,-2.0999,-2.0998,-2.0997,-2.088,-2.0876,-2.0872,-2.0868,-2.0845,-2.0847,-2.085,-2.095,0,0,-2.0859,-2.086,0,0,0,0,0,0,0,0,-2.0989,-2.0991,-2.0975,-2.097,-2.0963,-2.0938,-2.0975,-2.0982,-2.0881,-2.0911,-2.0871,-2.0866,-2.088,-2.088,-2.0883,-2.0949,-2.0948,-2.0859,-2.0861,-2.0862,-2.0863,0,0,0,0,0,0,0,-2.099,-2.0991,-2.1017,-2.0975,-2.0968,-2.0941,-2.0936,-2.0976,-2.0919,-2.0908,-2.0899,-2.0897,-2.0876,-2.0881,-2.0882,-2.0947,-2.0859,-2.0861,-2.0863,-2.0864,-2.1095,-2.11,0,0,0,0,0,0,-2.0998,-2.0992,-2.1018,-2.1016,-2.0966,-2.0945,-2.0939,-2.095,-2.0918,-2.0909,-2.09,-2.0891,-2.0878,-2.0879,-2.0881,-2.0997,-2.0862,-2.0865,-2.0866,-2.1091,-2.1096,-2.1101,0,0,0,0,0,0,-2.0998,-2.1001,-2.1019,-2.1002,-2.1002,-2.0949,-2.0963,-2.0952,-2.0956,-2.0912,-2.0902,-2.0915,-2.0875,-2.0877,-2.0934,-2.0995,-2.0866,-2.0868,-2.1086,-2.1093,-2.1099,-2.123,0,0,0,0,0,0,-2.0997,-2.1002,-2.1038,-2.1003,-2.1003,-2.1071,-2.0967,-2.0954,-2.0961,-2.0949,-2.0924,-2.0916,-2.0872,-2.093,-2.0937,-2.0996,-2.0871,-2.108,-2.1089,-2.1097,-2.122,-2.1241,-2.1258,0,0,0,0,0,-2.0996,-2.1077,-2.104,-2.1044,-2.1047,-2.1075,-2.1075,-2.1021,-2.0966,-2.1003,-2.0975,-2.0917,-2.0986,-2.0937,-2.0943,-2.1005,-2.1076,-2.1086,-2.1096,-2.1212,-2.1237,-2.1257,0,0,0,0,0,0,-2.1122,-2.1071,-2.103,-2.1102,-2.1093,-2.1055,-2.1099,-2.1049,-2.1057,-2.1046,-2.098,-2.0976,-2.1043,-2.1029,-2.0975,-2.1101,-2.1022,-2.1033,-2.1108,-2.1131,-2.1149,-2.1152,-2.0873,0,0,0,0,0,-2.1158,-2.1183,-2.1138,-2.1206,-2.1203,-2.1153,-2.1163,-2.1122,-2.1111,-2.1108,-2.1084,-2.1078,-2.1098,-2.1113,-2.1129,-2.1217,-2.1211,-2.1262,-2.1281,-2.1297,-2.1309,-2.1356,-2.1379,-2.1134,-2.1134,-2.1134,0,0,-2.1233,-2.1208,-2.1229,-2.1231,-2.1219,-2.1249,-2.115,-2.1186,-2.1208,-2.1114,-2.1166,-2.1148,-2.1137,-2.1211,-2.1242,-2.1201,-2.1375,-2.131,-2.1323,-2.1326,-2.1369,-2.1392,-2.1413,-2.1141,-2.1139,-2.1138,0,0,-2.1385,-2.1368,-2.1423,-2.1414,-2.1397,-2.1363,-2.1376,-2.1345,-2.1329,-2.138,-2.1311,-2.1337,-2.1373,-2.1369,-2.1371,-2.1522,-2.147,-2.153,-2.1629,-2.1676,-2.1695,-2.1712,-2.1769,-2.179,-2.1541,-2.1541,-2.1541,0,-2.1481,-2.1521,-2.1459,-2.1499,-2.1503,-2.1417,-2.1474,-2.1468,-2.1459,-2.1465,-2.1419,-2.1463,-2.1449,-2.1521,-2.1558,-2.1562,-2.1578,-2.1533,-2.1697,-2.1714,-2.1728,-2.1782,-2.1803,-2.1549,-2.1548,-2.1547,-2.1546,0,-2.1641,-2.167,-2.1717,-2.1709,-2.1718,-2.1767,-2.1714,-2.1731,-2.1689,-2.1661,-2.1715,-2.1695,-2.1707,-2.172,-2.1681,-2.1788,-2.1763,-2.1708,-2.1628,-2.176,-2.1809,-2.1829,-2.1559,-2.1557,-2.1555,-2.1553,0,0,-2.1874,-2.1829,-2.1848,-2.1844,-2.1819,-2.1841,-2.1887,-2.1896,-2.1914,-2.191,-2.1949,-2.1981,-2.193,-2.1933,-2.1892,-2.1933,-2.2057,-2.1873,-2.1872,-2.191,-2.2177,-2.2221,-2.2245,-2.2021,-2.2025,-2.2028,-2.2179,0,-2.202,-2.2094,-2.2039,-2.2123,-2.2151,-2.2069,-2.2109,-2.21,-2.2075,-2.2096,-2.2068,-2.2093,-2.2022,-2.2024,-2.2061,-2.2035,-2.2111,-2.2022,-2.206,-2.2062,-2.2067,-2.227,-2.2316,-2.2459,-2.2197,-2.2201,-2.2203,0,-2.2201,-2.2205,-2.2291,-2.2262,-2.2271,-2.2308,-2.2313,-2.2333,-2.2322,-2.2301,-2.2304,-2.2253,-2.2298,-2.2217,-2.228,-2.2222,-2.2233,-2.2223,-2.2227,-2.2231,-2.2142,-2.2282,-2.2504,-2.2527,-2.2232,-2.223,-2.2227,0,-2.2366,-2.2391,-2.2446,-2.2445,-2.2412,-2.244,-2.2428,-2.2412,-2.2421,-2.2426,-2.2433,-2.2444,-2.2451,-2.2461,-2.2415,-2.236,-2.2486,-2.24,-2.2472,-2.2473,-2.2504,-2.2503,-2.2734,-2.2508,-2.2507,-2.2507,-2.2506,0,-2.2536,-2.2593,-2.252,-2.2554,-2.2616,-2.2554,-2.2618,-2.2597,-2.2584,-2.2615,-2.2545,-2.2576,-2.2511,-2.2537,-2.2501,-2.256,-2.2563,-2.2549,-2.254,-2.2557,-2.2559,-2.2566,-2.2556,-2.2512,-2.2511,-2.251,-2.2509,0,-2.2731,-2.2683,-2.2739,-2.2702,-2.2695,-2.2742,-2.2712,-2.2744,-2.2713,-2.2753,-2.2759,-2.2712,-2.2738,-2.2692,-2.2713,-2.2689,-2.2772,-2.2746,-2.2776,-2.2769,-2.2844,-2.2839,-2.3089,-2.312,-2.2872,-2.2875,-2.2877,0,-2.2844,-2.2886,-2.2854,-2.2868,-2.286,-2.2884,-2.2893,-2.2834,-2.2847,-2.2837,-2.2871,-2.2891,-2.2903,-2.2949,-2.2919,-2.2935,-2.291,-2.2996,-2.2912,-2.2929,-2.2915,-2.2914,-2.2919,-2.3015,-2.3018,-2.302,-2.3022,0,-2.3052,-2.3026,-2.3041,-2.3049,-2.3061,-2.3064,-2.3063,-2.308,-2.3017,-2.3035,-2.306,-2.307,-2.309,-2.3112,-2.3121,-2.311,-2.3058,-2.3049,-2.3067,-2.3086,-2.3103,-2.3098,-2.2826,-2.3044,-2.3042,-2.304,-2.3039,-2.3038,-2.3211,-2.3245,-2.3228,-2.3247,-2.3239,-2.324,-2.3268,-2.324,-2.3259,-2.327,-2.3234,-2.3268,-2.3257,-2.3263,-2.3258,-2.3286,-2.3248,-2.3273,-2.328,-2.3288,-2.3301,-2.3096,-2.3287,-2.3286,-2.3285,-2.3285,-2.3284,0,-2.3417,-2.3402,-2.342,-2.3419,-2.3436,-2.3381,-2.3377,-2.3395,-2.3425,-2.3417,-2.3431,-2.3461,-2.3482,-2.3452,-2.3469,-2.3497,-2.3473,-2.3503,-2.3502,-2.3501,-2.3332,-2.3316,-2.3522,-2.3522,-2.3522,-2.3522,-2.3522,-2.3522,-2.3526,-2.3581,-2.3554,-2.3606,-2.359,-2.3621,-2.3624,-2.3625,-2.3619,-2.3655,-2.3671,-2.365,-2.3636,-2.365,-2.3668,-2.3659,-2.3669,-2.3709,-2.3692,-2.3536,-2.3513,-2.3491,-2.3475,-2.3711,-2.3711,-2.3859,-2.386,-2.3861]},{"header":{"parameterUnit":"m.s-1","parameterCategory":1,"la1":30.2991,"la2":30.254,"lo1":-89.0895,"lo2":-89.0444,"dy":0.0017,"dx":0.0017,"nx":28,"ny":28,"refTime":"2025-01-08T09:00:00:Z","depth":0,"parameterNumber":3,"parameterNumberName":"V-component_of_WINDS"},"data":[0,0,0,0,0,0,0,0,0,0,0,0,0,0,0,0,0,0,0,0,0,0,0,0,0,0,0,0,0,0,0,0,0,0,0,0,0,0,0,0,0,0,0,0,0,0,0,0,0,0,0,0,0,0,0,0,0,0,-1.9146,-1.9146,0,-1.9162,-1.9162,-1.9162,-1.9122,-1.912,-1.9119,-1.9118,-1.9134,-1.9136,-1.9137,0,0,0,0,0,0,0,0,0,0,0,0,0,-1.908,-1.9082,-1.9146,-1.9146,-1.9146,-1.9162,-1.9162,-1.9162,-1.9122,-1.912,-1.9119,-1.9117,-1.9134,-1.9135,-1.9137,0,0,0,0,0,0,0,0,0,0,0,0,0,-1.9104,-1.9082,-1.9146,-1.9128,-1.9127,-1.9162,-1.9162,-1.9162,-1.9122,-1.912,-1.9118,-1.9116,-1.9133,-1.9135,-1.9138,-1.9191,0,0,-1.9145,-1.9146,0,0,0,0,0,0,0,0,-1.9103,-1.9106,-1.913,-1.9129,-1.9128,-1.9138,-1.9145,-1.9172,-1.9123,-1.9124,-1.9118,-1.9116,-1.9137,-1.9139,-1.9146,-1.9191,-1.9192,-1.9145,-1.9147,-1.9148,-1.9148,0,0,0,0,0,0,0,-1.9101,-1.9105,-1.9152,-1.9131,-1.9129,-1.9119,-1.912,-1.915,-1.9141,-1.9124,-1.9121,-1.9123,-1.9136,-1.9144,-1.9146,-1.9192,-1.9145,-1.9147,-1.9149,-1.915,-1.9282,-1.9284,0,0,0,0,0,0,-1.9102,-1.9104,-1.9152,-1.9153,-1.911,-1.9122,-1.9123,-1.9136,-1.914,-1.9139,-1.9125,-1.9121,-1.9141,-1.9143,-1.9146,-1.9209,-1.9148,-1.915,-1.9151,-1.928,-1.9283,-1.9285,0,0,0,0,0,0,-1.91,-1.9106,-1.9151,-1.9128,-1.9133,-1.9125,-1.914,-1.9138,-1.9146,-1.9141,-1.9139,-1.9135,-1.9139,-1.9143,-1.918,-1.9209,-1.9151,-1.9153,-1.9278,-1.9281,-1.9284,-1.9335,0,0,0,0,0,0,-1.9099,-1.9106,-1.9126,-1.9128,-1.9134,-1.9185,-1.9142,-1.9139,-1.915,-1.9145,-1.915,-1.9149,-1.9138,-1.9177,-1.9182,-1.9212,-1.9155,-1.9275,-1.9279,-1.9283,-1.9331,-1.934,-1.9347,0,0,0,0,0,-1.9097,-1.914,-1.9128,-1.9134,-1.9159,-1.9186,-1.919,-1.9176,-1.9152,-1.9173,-1.917,-1.9149,-1.9205,-1.9181,-1.9187,-1.9217,-1.9273,-1.9278,-1.9283,-1.9327,-1.9338,-1.9347,0,0,0,0,0,0,-1.9142,-1.914,-1.9126,-1.9172,-1.918,-1.918,-1.9205,-1.9188,-1.9202,-1.9198,-1.918,-1.9181,-1.9222,-1.9223,-1.9196,-1.9269,-1.9235,-1.9241,-1.9267,-1.9277,-1.9285,-1.9284,-1.9157,0,0,0,0,0,-1.9157,-1.918,-1.9177,-1.9217,-1.9222,-1.9213,-1.9224,-1.9213,-1.922,-1.9223,-1.9223,-1.9231,-1.925,-1.9263,-1.9281,-1.933,-1.9331,-1.9354,-1.9362,-1.9369,-1.9375,-1.9401,-1.9412,-1.93,-1.93,-1.93,0,0,-1.9189,-1.9191,-1.9206,-1.9226,-1.9231,-1.9255,-1.9216,-1.9242,-1.926,-1.9227,-1.9262,-1.9262,-1.927,-1.9314,-1.9333,-1.9316,-1.9406,-1.9375,-1.938,-1.9383,-1.9407,-1.9418,-1.9427,-1.9303,-1.9303,-1.9302,0,0,-1.926,-1.9263,-1.9297,-1.9303,-1.931,-1.9304,-1.9312,-1.9314,-1.9313,-1.9348,-1.9324,-1.9344,-1.9378,-1.9384,-1.9392,-1.9464,-1.9446,-1.947,-1.9514,-1.954,-1.9548,-1.9556,-1.9583,-1.9592,-1.9476,-1.9476,-1.9476,0,-1.9299,-1.9333,-1.9317,-1.9345,-1.9355,-1.9326,-1.9361,-1.9367,-1.938,-1.9387,-1.9368,-1.9409,-1.9412,-1.9457,-1.9475,-1.9482,-1.9491,-1.947,-1.9548,-1.9556,-1.9563,-1.9588,-1.9598,-1.9479,-1.9479,-1.9478,-1.9478,0,-1.9381,-1.9405,-1.9432,-1.9445,-1.9458,-1.9489,-1.9478,-1.9492,-1.9479,-1.9475,-1.9511,-1.9513,-1.9531,-1.954,-1.9528,-1.9584,-1.9573,-1.9551,-1.9517,-1.9577,-1.96,-1.961,-1.9483,-1.9482,-1.9481,-1.9481,0,0,-1.9482,-1.9485,-1.9495,-1.9501,-1.9507,-1.9525,-1.9555,-1.9572,-1.9585,-1.9595,-1.962,-1.9648,-1.9628,-1.9637,-1.9625,-1.9648,-1.9706,-1.9623,-1.9623,-1.9639,-1.9767,-1.9785,-1.9796,-1.9693,-1.9694,-1.9696,-1.9767,0,-1.9552,-1.9604,-1.959,-1.9641,-1.9663,-1.9636,-1.9662,-1.9668,-1.9665,-1.9683,-1.9679,-1.97,-1.9671,-1.9676,-1.9697,-1.9694,-1.9731,-1.9689,-1.9716,-1.9718,-1.9717,-1.9808,-1.9826,-1.9894,-1.9776,-1.9777,-1.9779,0,-1.9641,-1.9654,-1.9708,-1.971,-1.9719,-1.9743,-1.9757,-1.9775,-1.9781,-1.9777,-1.9787,-1.977,-1.9799,-1.9764,-1.9805,-1.9776,-1.9786,-1.9786,-1.9788,-1.9791,-1.9753,-1.9815,-1.9915,-1.9925,-1.9793,-1.9792,-1.979,0,-1.971,-1.9741,-1.9778,-1.9783,-1.9786,-1.9804,-1.9806,-1.981,-1.9821,-1.9834,-1.9841,-1.9856,-1.9865,-1.9878,-1.9866,-1.9841,-1.9908,-1.9872,-1.9906,-1.9907,-1.9923,-1.9922,-2.0027,-1.9927,-1.9927,-1.9927,-1.9927,0,-1.9791,-1.9825,-1.9809,-1.9831,-1.9869,-1.9852,-1.9889,-1.9888,-1.9892,-1.9914,-1.9891,-1.9912,-1.9894,-1.9913,-1.9904,-1.9939,-1.9943,-1.9941,-1.9938,-1.9944,-1.9944,-1.9951,-1.9946,-1.993,-1.9929,-1.9929,-1.9928,0,-1.9876,-1.9866,-1.9904,-1.9903,-1.9904,-1.9932,-1.9931,-1.9952,-1.9946,-1.9974,-1.9979,-1.997,-1.9992,-1.9981,-2.0003,-1.9997,-2.0042,-2.0033,-2.0041,-2.0038,-2.0073,-2.0071,-2.0187,-2.0202,-2.0092,-2.0093,-2.0094,0,-1.9928,-1.9954,-1.9956,-1.9969,-1.9973,-1.9994,-2.0005,-1.9989,-2.0002,-2.0011,-2.003,-2.005,-2.0065,-2.01,-2.0096,-2.0112,-2.0104,-2.0143,-2.0106,-2.0111,-2.0106,-2.0105,-2.0107,-2.0151,-2.0153,-2.0154,-2.0154,0,-2.0023,-2.0017,-2.0034,-2.005,-2.0064,-2.0075,-2.0085,-2.0097,-2.0081,-2.0096,-2.0118,-2.0129,-2.0152,-2.0171,-2.0186,-2.0187,-2.0169,-2.0166,-2.0175,-2.0181,-2.0185,-2.0185,-2.0062,-2.0164,-2.0163,-2.0162,-2.0162,-2.0161,-2.0094,-2.0116,-2.0121,-2.0141,-2.0146,-2.0155,-2.0175,-2.0171,-2.0189,-2.0206,-2.0195,-2.0221,-2.0226,-2.0244,-2.0248,-2.0268,-2.0252,-2.0265,-2.0268,-2.0272,-2.0277,-2.0181,-2.027,-2.027,-2.027,-2.0269,-2.0269,0,-2.0189,-2.019,-2.0209,-2.0223,-2.0238,-2.0219,-2.0228,-2.0242,-2.0265,-2.0272,-2.0287,-2.0311,-2.033,-2.0327,-2.0344,-2.036,-2.0352,-2.0366,-2.0365,-2.0366,-2.029,-2.0281,-2.0372,-2.0372,-2.0372,-2.0372,-2.0372,-2.0372,-2.024,-2.0276,-2.027,-2.0308,-2.0309,-2.0334,-2.0341,-2.035,-2.0355,-2.0384,-2.0399,-2.0397,-2.04,-2.0417,-2.0433,-2.0431,-2.0439,-2.0456,-2.0452,-2.0381,-2.0371,-2.0361,-2.0353,-2.0458,-2.0458,-2.0526,-2.0526,-2.0527]}]]